Regional Weather Roundup
Issued by NWS Albany, NY

Home | Current Version | Previous Version | Text Only | Print | Product List | Glossary On
Versions: 1 2 3 4 5 6 7 8 9 10 11 12 13 14 15 16 17 18 19 20 21 22 23 24 25 26 27
000
ASUS41 KALY 251810
RWRALY

NEW YORK STATE HOURLY WEATHER ROUNDUP
NATIONAL WEATHER SERVICE ALBANY NY
200 PM EDT SUN SEP 25 2016

NOTE: "FAIR" INDICATES FEW OR NO CLOUDS BELOW 12,000 FEET WITH NO
SIGNIFICANT WEATHER AND/OR NO OBSTRUCTIONS TO VISIBILITY.

NYZ032-033-038>043-046>054-057>066-NYZ062>081-082-084-251900-
EAST


CITY           SKY/WX    TMP DP  RH WIND       PRES   REMARKS
ALBANY         MOSUNNY   63  38  39 CALM      30.18F
GLENS FALLS    SUNNY     64  38  38 N8        30.15F
POUGHKEEPSIE   SUNNY     64  32  30 VRB6G21   30.16F
NEWBURGH       SUNNY     66  36  32 NE7G20    30.18F
MONTGOMERY     SUNNY     67  37  33 CALM      30.16F
WHITE PLAINS   SUNNY     65  33  30 NW8       30.16F
ISLIP          SUNNY     65  33  30 NW12G21   30.14F
NEW YORK CITY  SUNNY     67  31  26 N13       30.16F
CENTRAL PARK   SUNNY     68  36  30 VRB6      30.19F
$$

NYZ005>009-017-018-044>046-055-056-251900-
CENTRAL


CITY           SKY/WX    TMP DP  RH WIND       PRES   REMARKS
FULTON         SUNNY     62  32  32 NW8       30.24F
SYRACUSE       MOSUNNY   61  33  35 CALM      30.23F
ROME           SUNNY     62  38  40 N12       30.22F
ELMIRA         SUNNY     66  34  30 NE9       30.20F
BINGHAMTON     SUNNY     60  34  37 N6        30.21F
MONTICELLO     SUNNY     63  30  29 N8G17     30.19F
$$

NYZ026>034-041>043-087-251900-
NORTH


CITY           SKY/WX    TMP DP  RH WIND       PRES   REMARKS
WATERTOWN      SUNNY     62  37  39 N6        30.23F
FORT DRUM      NOT AVBL
OGDENSBURG     FAIR      64  36  35 NW5       30.22F
MASSENA        SUNNY     60  37  42 W12       30.22F
SARANAC LAKE   SUNNY     55  31  39 VRB6      30.18F
PLATTSBURGH    SUNNY     62  31  31 N14G22    30.16F
$$

NYZ001>004-010>016-019>021-085-251900-
WEST


CITY           SKY/WX    TMP DP  RH WIND       PRES   REMARKS
NIAGARA FALLS  MOSUNNY   67  39  35 E6        30.22F
BUFFALO        MOSUNNY   64  40  41 N5        30.21F
DUNKIRK        SUNNY     65  47  52 N10       30.20F
JAMESTOWN      SUNNY     61  43  51 CALM      30.21F
WELLSVILLE     SUNNY     61  36  39 W3        30.23F
ROCHESTER      MOSUNNY   62  44  51 E8        30.23F
PENN YAN       SUNNY     62  31  31 N5        30.24F
$$

             KEY
       WCI = WIND CHILL INDEX
       VSB = VISIBILITY
       HX  = HEAT INDEX
$$




USA.gov is the U.S. government's official web portal to all federal, state and local government web resources and services.